Time,TemperatureF,DewpointF,PressureIn,WindDirection,WindDirectionDegrees,WindSpeedMPH,WindSpeedGustMPH,Humidity,HourlyPrecipIn,Conditions,Clouds,dailyrainin,SoftwareType,DateUTC
2013-07-09 07:34:00,75.0,71.0,29.97,WSW,246,2.0,7.0,88,0.00,,,0.00,,2013-07-09 11:34:00,
2013-07-09 07:53:00,75.0,71.0,29.96,WSW,251,3.0,7.0,88,0.00,,,0.00,,2013-07-09 11:53:00,
2013-07-09 08:02:00,76.0,72.0,29.96,SW,232,3.0,8.0,87,0.00,,,0.00,,2013-07-09 12:02:00,
2013-07-09 08:22:00,77.0,72.0,29.97,SW,234,4.0,8.0,86,0.00,,,0.00,,2013-07-09 12:22:00,
2013-07-09 08:33:00,78.0,72.0,29.97,West,263,5.0,9.0,83,0.00,,,0.00,,2013-07-09 12:33:00,
2013-07-09 08:52:00,77.0,72.0,29.97,SW,225,4.0,9.0,84,0.00,,,0.00,,2013-07-09 12:52:00,
2013-07-09 09:22:00,77.0,72.0,29.97,SSE,163,4.0,9.0,84,0.00,,,0.00,,2013-07-09 13:22:00,
2013-07-09 09:33:00,77.0,72.0,29.98,WSW,250,2.0,6.0,85,0.00,,,0.00,,2013-07-09 13:33:00,
2013-07-09 09:43:00,77.0,72.0,29.98,SSW,210,1.0,8.0,86,0.00,,,0.00,,2013-07-09 13:43:00,
2013-07-09 09:53:00,77.0,72.0,29.98,SSW,210,1.0,8.0,86,0.00,,,0.00,,2013-07-09 13:53:00,
2013-07-09 10:22:00,77.0,72.0,29.98,WSW,248,2.0,9.0,85,0.00,,,0.00,,2013-07-09 14:22:00,
2013-07-09 10:34:00,78.0,73.0,29.98,WSW,244,3.0,7.0,85,0.00,,,0.00,,2013-07-09 14:34:00,
2013-07-09 10:43:00,78.0,73.0,29.98,WSW,240,3.0,9.0,86,0.00,,,0.00,,2013-07-09 14:43:00,
2013-07-09 10:53:00,78.0,73.0,29.98,WSW,240,3.0,9.0,86,0.00,,,0.00,,2013-07-09 14:53:00,
2013-07-09 11:12:00,77.0,73.0,29.98,WSW,242,2.0,9.0,88,0.00,,,0.00,,2013-07-09 15:12:00,
2013-07-09 11:22:00,76.0,73.0,29.97,SW,236,1.0,6.0,91,0.00,,,0.00,,2013-07-09 15:22:00,
2013-07-09 11:43:00,76.0,73.0,29.98,WSW,254,2.0,5.0,90,0.00,,,0.00,,2013-07-09 15:43:00,
2013-07-09 11:52:00,77.0,74.0,29.98,SW,227,1.0,5.0,90,0.00,,,0.00,,2013-07-09 15:52:00,
2013-07-09 12:02:00,77.0,73.0,29.98,SSW,213,1.0,6.0,88,0.00,,,0.00,,2013-07-09 16:02:00,
2013-07-09 12:11:00,77.0,73.0,29.98,SSW,213,1.0,6.0,88,0.00,,,0.00,,2013-07-09 16:11:00,
2013-07-09 12:22:00,78.0,74.0,29.97,West,266,2.0,6.0,88,0.00,,,0.00,,2013-07-09 16:22:00,
2013-07-09 12:43:00,81.0,76.0,29.97,SW,235,2.0,7.0,84,0.00,,,0.00,,2013-07-09 16:43:00,
2013-07-09 12:52:00,81.0,76.0,29.97,SW,235,2.0,7.0,84,0.00,,,0.00,,2013-07-09 16:52:00,
2013-07-09 13:11:00,82.0,76.0,29.97,SW,226,3.0,9.0,82,0.00,,,0.00,,2013-07-09 17:11:00,
2013-07-09 13:22:00,82.0,76.0,29.98,SW,225,2.0,6.0,82,0.00,,,0.00,,2013-07-09 17:22:00,
2013-07-09 13:45:00,82.0,76.0,29.97,WSW,242,3.0,7.0,82,0.00,,,0.00,,2013-07-09 17:45:00,
2013-07-09 13:53:00,81.0,75.0,29.96,SSW,205,2.0,7.0,83,0.00,,,0.00,,2013-07-09 17:53:00,
2013-07-09 14:02:00,83.0,77.0,29.96,WSW,254,2.0,6.0,82,0.00,,,0.00,,2013-07-09 18:02:00,
2013-07-09 14:22:00,84.0,76.0,29.96,SW,217,3.0,7.0,78,0.00,,,0.00,,2013-07-09 18:22:00,
2013-07-09 14:32:00,84.0,76.0,29.95,SSW,198,0.0,7.0,77,0.00,,,0.00,,2013-07-09 18:32:00,
2013-07-09 14:43:00,85.0,77.0,29.94,South,180,1.0,5.0,78,0.00,,,0.00,,2013-07-09 18:43:00,
2013-07-09 14:52:00,85.0,77.0,29.94,South,180,1.0,5.0,78,0.00,,,0.00,,2013-07-09 18:52:00,
2013-07-09 15:11:00,85.0,76.0,29.94,SW,230,3.0,14.0,74,0.00,,,0.00,,2013-07-09 19:11:00,
2013-07-09 15:22:00,86.0,77.0,29.93,NW,308,3.0,10.0,75,0.00,,,0.00,,2013-07-09 19:22:00,
2013-07-09 15:33:00,86.0,76.0,29.93,West,263,4.0,9.0,72,0.00,,,0.00,,2013-07-09 19:33:00,
2013-07-09 15:52:00,87.0,77.0,29.93,WSW,242,3.0,11.0,73,0.00,,,0.00,,2013-07-09 19:52:00,
2013-07-09 16:02:00,88.0,77.0,29.92,SSW,203,2.0,8.0,71,0.00,,,0.00,,2013-07-09 20:02:00,
2013-07-09 16:11:00,88.0,77.0,29.92,SSW,203,2.0,8.0,71,0.00,,,0.00,,2013-07-09 20:11:00,
2013-07-09 16:22:00,87.0,77.0,29.92,WSW,251,3.0,11.0,72,0.00,,,0.00,,2013-07-09 20:22:00,
2013-07-09 16:43:00,86.0,77.0,29.92,WSW,242,4.0,9.0,74,0.00,,,0.00,,2013-07-09 20:43:00,
2013-07-09 16:52:00,86.0,77.0,29.92,WSW,242,4.0,9.0,74,0.00,,,0.00,,2013-07-09 20:52:00,
2013-07-09 17:22:00,86.0,77.0,29.91,WSW,244,3.0,8.0,74,0.00,,,0.00,,2013-07-09 21:22:00,
2013-07-09 17:32:00,87.0,76.0,29.91,West,278,3.0,8.0,71,0.00,,,0.00,,2013-07-09 21:32:00,
2013-07-09 17:52:00,86.0,75.0,29.91,WSW,239,3.0,8.0,71,0.00,,,0.00,,2013-07-09 21:52:00,
2013-07-09 18:22:00,86.0,76.0,29.90,WSW,252,2.0,9.0,72,0.00,,,0.00,,2013-07-09 22:22:00,
2013-07-09 18:33:00,86.0,76.0,29.89,WSW,255,2.0,7.0,73,0.00,,,0.00,,2013-07-09 22:33:00,
2013-07-09 18:42:00,85.0,76.0,29.89,SSW,195,1.0,6.0,75,0.00,,,0.00,,2013-07-09 22:42:00,
2013-07-09 18:53:00,85.0,76.0,29.89,SSW,195,1.0,6.0,75,0.00,,,0.00,,2013-07-09 22:53:00,
2013-07-09 19:11:00,84.0,76.0,29.89,WSW,240,0.0,3.0,78,0.00,,,0.00,,2013-07-09 23:11:00,
2013-07-09 19:22:00,83.0,77.0,29.89,SW,225,0.0,1.0,82,0.00,,,0.00,,2013-07-09 23:22:00,
2013-07-09 19:33:00,82.0,76.0,29.89,West,265,0.0,2.0,82,0.00,,,0.00,,2013-07-09 23:33:00,
2013-07-09 19:43:00,82.0,76.0,29.88,SW,219,1.0,5.0,81,0.00,,,0.00,,2013-07-09 23:43:00,
2013-07-09 19:53:00,82.0,76.0,29.88,SW,219,1.0,5.0,81,0.00,,,0.00,,2013-07-09 23:53:00,
2013-07-09 20:01:00,81.0,76.0,29.88,SW,235,0.0,1.0,84,0.00,,,0.00,,2013-07-10 00:01:00,
2013-07-09 20:11:00,80.0,75.0,29.88,SW,225,0.0,1.0,85,0.00,,,0.00,,2013-07-10 00:11:00,
2013-07-09 20:22:00,80.0,75.0,29.88,SW,225,0.0,1.0,85,0.00,,,0.00,,2013-07-10 00:22:00,
2013-07-09 20:33:00,80.0,75.0,29.88,SW,226,0.0,1.0,86,0.00,,,0.00,,2013-07-10 00:33:00,
2013-07-09 20:42:00,80.0,75.0,29.88,SW,223,0.0,1.0,86,0.00,,,0.00,,2013-07-10 00:42:00,
2013-07-09 20:52:00,80.0,75.0,29.88,SW,223,0.0,1.0,86,0.00,,,0.00,,2013-07-10 00:52:00,
2013-07-09 21:01:00,80.0,76.0,29.88,SW,223,0.0,2.0,88,0.00,,,0.00,,2013-07-10 01:01:00,
2013-07-09 21:11:00,79.0,75.0,29.88,SW,223,0.0,1.0,88,0.00,,,0.00,,2013-07-10 01:11:00,
2013-07-09 21:22:00,79.0,75.0,29.88,SW,223,0.0,1.0,88,0.00,,,0.00,,2013-07-10 01:22:00,
2013-07-09 21:52:00,79.0,75.0,29.88,SSW,192,0.0,3.0,87,0.00,,,0.00,,2013-07-10 01:52:00,
2013-07-09 22:02:00,79.0,73.0,29.88,SSW,198,0.0,3.0,83,0.00,,,0.00,,2013-07-10 02:02:00,
2013-07-09 22:22:00,79.0,73.0,29.89,SSW,196,0.0,3.0,82,0.00,,,0.00,,2013-07-10 02:22:00,
2013-07-09 22:34:00,78.0,72.0,29.89,SSW,197,0.0,2.0,82,0.00,,,0.00,,2013-07-10 02:34:00,
2013-07-09 22:43:00,78.0,72.0,29.89,SSW,197,0.0,2.0,82,0.00,,,0.00,,2013-07-10 02:43:00,